Location: Casone le Fosse
(44.6547°N, 12.1103°E)
Time: 12:06:05
(UTC+00:00)

Cosmos 1697 Rocket - Pass Details

Date: 29 October 2020
Orbit: 831 x 845 km, 71.0° (Epoch: 28 November)

Event Time Altitude Azimuth Distance (km) Brightness Sun altitude
Rises 18:49:45 0° 235° (SW) 3,368 6.4 -29.9°
Reaches altitude 10° 18:52:27 10° 245° (WSW) 2,440 5.7 -30.4°
Maximum altitude 18:57:23 31° 307° (NW) 1,432 4.3 -31.2°
Enters shadow 19:01:25 14° 3° (N) 2,168 4.9 -31.9°
